KC7FQC Weather Reports


Display with metric or nautical units.
time (UTC)temp
F
wind
direction
speed
MPH
gust
MPH
rain 1hr
in
rain 24hr
in
rain mn
in
humidity
%
barometer
mb
20180425022541 89 215 2.0 7.0 0.00 0.00 0.00 12 1009.8
20180425015541 91 213 3.0 9.0 0.00 0.00 0.00 11 1009.7
20180425012541 92 209 9.0 10.0 0.00 0.00 0.00 10 1009.6
20180425005541 93 233 6.0 10.0 0.00 0.00 0.00 9 1009.5
20180425002541 94 254 4.0 11.0 0.00 0.00 0.00 9 1009.6
20180424235541 95 266 6.0 14.0 0.00 0.00 0.00 8 1009.6
20180424232511 96 213 10.0 14.0 0.00 0.00 0.00 7 1009.7
20180424225541 96 213 9.0 16.0 0.00 0.00 0.00 9 1010.2
20180424222541 94 208 8.0 16.0 0.00 0.00 0.00 9 1010.3
20180424215541 97 247 3.0 16.0 0.00 0.00 0.00 9 1010.7
20180424212526 97 203 4.0 16.0 0.00 0.00 0.00 9 1011.1
20180424205540 97 291 2.0 12.0 0.00 0.00 0.00 9 1011.5
20180424202510 97 224 4.0 12.0 0.00 0.00 0.00 10 1011.9
20180424195540 97 213 5.0 11.0 0.00 0.00 0.00 11 1012.3
20180424192540 95 219 4.0 11.0 0.00 0.00 0.00 12 1012.8
20180424185540 93 190 5.0 13.0 0.00 0.00 0.00 13 1012.9
20180424182540 91 219 4.0 12.0 0.00 0.00 0.00 14 1013.4
20180424175540 90 267 5.0 10.0 0.00 0.00 0.00 13 1013.9
20180424172540 89 202 4.0 8.0 0.00 0.00 0.00 14 1014.1
20180424165540 86 169 4.0 7.0 0.00 0.00 0.00 15 1013.9
20180424162510 83 190 4.0 8.0 0.00 0.00 0.00 16 1013.8
20180424155540 83 211 0.0 4.0 0.00 0.00 0.00 19 1014.1
20180424152540 80 211 0.0 1.0 0.00 0.00 0.00 21 1014.2
20180424145540 74 212 1.0 2.0 0.00 0.00 0.00 25 1014.0
20180424142540 69 198 0.0 2.0 0.00 0.00 0.00 29 1013.8
20180424135540 64 198 0.0 2.0 0.00 0.00 0.00 32 1013.4
20180424132510 61 200 0.0 6.0 0.00 0.00 0.00 35 1012.8
20180424125540 61 200 0.0 1.0 0.00 0.00 0.00 38 1012.3
20180424122540 62 200 0.0 1.0 0.00 0.00 0.00 39 1012.1
20180424115510 62 200 0.0 2.0 0.00 0.00 0.00 38 1012.0
20180424112540 62 200 0.0 3.0 0.00 0.00 0.00 39 1011.8
20180424105510 63 200 0.0 0.0 0.00 0.00 0.00 40 1011.9
20180424102540 64 200 0.0 1.0 0.00 0.00 0.00 39 1012.1
20180424095510 66 200 0.0 2.0 0.00 0.00 0.00 37 1012.0
20180424092540 66 200 0.0 2.0 0.00 0.00 0.00 35 1011.8
20180424085540 67 200 1.0 5.0 0.00 0.00 0.00 36 1012.1
20180424082540 68 200 0.0 0.0 0.00 0.00 0.00 36 1012.1
20180424075540 69 200 0.0 0.0 0.00 0.00 0.00 33 1012.1
20180424072510 70 200 0.0 0.0 0.00 0.00 0.00 31 1012.4
20180424065540 71 200 0.0 0.0 0.00 0.00 0.00 29 1012.1
20180424062539 72 200 0.0 1.0 0.00 0.00 0.00 27 1011.9
20180424055540 73 200 0.0 0.0 0.00 0.00 0.00 25 1011.9
20180424052525 75 200 0.0 5.0 0.00 0.00 0.00 24 1011.5
20180424045539 76 199 0.0 0.0 0.00 0.00 0.00 25 1011.6
20180424042539 78 199 0.0 0.0 0.00 0.00 0.00 22 1011.1
20180424035539 80 199 0.0 0.0 0.00 0.00 0.00 19 1011.2
20180424032539 83 199 0.0 0.0 0.00 0.00 0.00 17 1010.8
20180424025539 86 199 0.0 1.0 0.00 0.00 0.00 14 1010.6